Clinton, AR

2:30 AM CDT on May 25, 2017 (GMT -0500)
Clinton

Weather History for KCCA - October, 2014

Change the Weather History Date:

Monday, October 6, 2014

  Actual Average (KBVX) Record (KBVX)
Temperature  
Mean Temperature 66 °F -  
Max Temperature 78 °F 74 °F 94 °F (1956)
Min Temperature 55 °F 50 °F 32 °F (1964)
Cooling Degree Days 2    
Growing Degree Days 16 (Base 50)    
Moisture  
Dew Point 60 °F    
Average Humidity 84    
Maximum Humidity 100    
Minimum Humidity 57    
Precipitation  
Precipitation 0.07 in - - ()
Sea Level Pressure  
Sea Level Pressure 29.86 in    
Wind  
Wind Speed 2 mph (SW)    
Max Wind Speed 9 mph    
Max Gust Speed -    
Visibility 8 miles    
Events Fog , Rain , Thunderstorm    
Averages and records for this station are not official NWS values.
T = Trace of Precipitation, MM = Missing Value Source: NWS Daily Summary

Daily Weather History Graph

Daily Weather History Graph

Search for Another Location

Airport or City:

Trip Planner

Search our weather history database for the weather conditions in past years. The results will help you decide how hot, cold, wet, or windy it might be!

Date:

Astronomy

Oct. 06, 2014 Rise Set
Actual Time 7:08 AM CDT 6:46 PM CDT
Civil Twilight 6:43 AM CDT 7:11 PM CDT
Nautical Twilight 6:13 AM CDT 7:41 PM CDT
Astronomical Twilight 5:44 AM CDT 8:10 PM CDT
Moon 5:40 PM CDT (10/6) 5:00 AM CDT (10/6)
Length of Visible Light 12h 28m
Length of Day
11h 37m
Waxing Gibbous, 96% of the Moon is Illuminated
Oct 6
Waxing Gibbous
Oct 8
Full
Oct 15
Last Quarter
Oct 23
New
Oct 30
First Quarter

Hourly Weather History & Observations

Time (CDT) Temp. Dew Point Humidity Pressure Visibility Wind Dir Wind Speed Gust Speed Precip Events Conditions
12:15 AM 60.8 °F 57.2 °F 88% 29.86 in 8.0 mi Calm Calm - N/A   Scattered Clouds
12:35 AM 60.8 °F 59.0 °F 94% 29.86 in 5.0 mi Calm Calm - N/A Rain Light Rain
12:55 AM 60.8 °F 59.0 °F 94% 29.86 in 9.0 mi Calm Calm - N/A   Scattered Clouds
1:15 AM 60.8 °F 60.8 °F 100% 29.85 in 10.0 mi SSE 3.5 mph - N/A   Scattered Clouds
1:35 AM 60.8 °F 60.8 °F 100% 29.84 in 10.0 mi Calm Calm - N/A Rain Light Rain
1:55 AM 62.6 °F 60.8 °F 94% 29.86 in 10.0 mi West 4.6 mph - N/A Thunderstorm Scattered Clouds
2:15 AM 60.8 °F 60.8 °F 100% 29.85 in 7.0 mi Calm Calm - 0.04 in Rain , Thunderstorm Light Thunderstorms and Rain
2:35 AM 60.8 °F 60.8 °F 100% 29.87 in 7.0 mi South 4.6 mph - 0.04 in Rain , Thunderstorm Light Rain
2:55 AM 62.6 °F 60.8 °F 94% 29.88 in 7.0 mi SSW 9.2 mph - 0.06 in Rain , Thunderstorm Light Rain
3:15 AM 62.6 °F 59.0 °F 88% 29.83 in 5.0 mi Calm Calm - 0.01 in Rain , Thunderstorm Light Rain
3:35 AM 60.8 °F 59.0 °F 94% 29.85 in 10.0 mi Calm Calm - 0.01 in   Partly Cloudy
3:55 AM 60.8 °F 57.2 °F 88% 29.86 in 10.0 mi West 3.5 mph - 0.01 in   Clear
4:15 AM 60.8 °F 57.2 °F 88% 29.85 in 10.0 mi Calm Calm - N/A   Clear
4:35 AM 59.0 °F 57.2 °F 94% 29.86 in 9.0 mi Calm Calm - N/A   Clear
4:55 AM 59.0 °F 57.2 °F 94% 29.85 in 10.0 mi Calm Calm - N/A   Clear
5:15 AM 57.2 °F 57.2 °F 100% 29.84 in 6.0 mi Calm Calm - N/A   Partly Cloudy
5:35 AM 57.2 °F 57.2 °F 100% 29.84 in 7.0 mi Calm Calm - N/A   Clear
5:55 AM 57.2 °F 57.2 °F 100% 29.85 in 7.0 mi Calm Calm - N/A   Clear
6:15 AM 57.2 °F 57.2 °F 100% 29.84 in 5.0 mi Calm Calm - N/A   Scattered Clouds
6:35 AM 57.2 °F 55.4 °F 94% 29.85 in 3.0 mi Calm Calm - N/A   Scattered Clouds
6:55 AM 55.4 °F 55.4 °F 100% 29.85 in 0.2 mi Calm Calm - N/A Fog Fog
7:15 AM 55.4 °F 55.4 °F 100% 29.86 in 2.5 mi Calm Calm - N/A   Clear
7:35 AM 55.4 °F 55.4 °F 100% 29.86 in 2.0 mi Calm Calm - N/A   Scattered Clouds
7:55 AM 55.4 °F 55.4 °F 100% 29.87 in 2.5 mi Calm Calm - N/A   Mostly Cloudy
8:15 AM 57.2 °F 57.2 °F 100% 29.87 in 1.0 mi Calm Calm - N/A   Overcast
8:35 AM 57.2 °F 57.2 °F 100% 29.87 in 1.5 mi Calm Calm - N/A   Overcast
8:55 AM 57.2 °F 57.2 °F 100% 29.88 in 4.0 mi Calm Calm - N/A   Overcast
9:15 AM 60.8 °F 60.8 °F 100% 29.88 in 6.0 mi Calm Calm - N/A   Mostly Cloudy
9:35 AM 62.6 °F 60.8 °F 94% 29.88 in 10.0 mi Calm Calm - N/A   Partly Cloudy
9:55 AM 64.4 °F 60.8 °F 88% 29.89 in 10.0 mi Calm Calm - N/A   Clear
10:15 AM 68.0 °F 62.6 °F 83% 29.91 in 9.0 mi Calm Calm - N/A   Clear
10:35 AM 69.8 °F 62.6 °F 78% 29.90 in 10.0 mi SW 4.6 mph - N/A   Clear
10:55 AM 71.6 °F 62.6 °F 73% 29.90 in 10.0 mi SSW 5.8 mph - N/A   Clear
11:15 AM 71.6 °F 62.6 °F 73% 29.91 in 10.0 mi SW 3.5 mph - N/A   Clear
11:35 AM 73.4 °F 62.6 °F 69% 29.90 in 10.0 mi SSW 5.8 mph - N/A   Clear
11:55 AM 73.4 °F 62.6 °F 69% 29.89 in 10.0 mi SW 4.6 mph - N/A   Clear
12:15 PM 75.2 °F 62.6 °F 65% 29.89 in 10.0 mi SSW 8.1 mph - N/A   Clear
12:35 PM 78.8 °F 62.6 °F 57% 29.89 in 10.0 mi SSW 8.1 mph - N/A   Clear
1:35 PM 77.0 °F 62.6 °F 61% 29.87 in 10.0 mi SW 8.1 mph - N/A   Clear
1:55 PM 75.2 °F 62.6 °F 65% 29.88 in 10.0 mi SW 8.1 mph - N/A   Clear
2:15 PM 75.2 °F 62.6 °F 65% 29.87 in 10.0 mi SSW 8.1 mph - N/A   Clear
2:35 PM 75.2 °F 62.6 °F 65% 29.87 in 10.0 mi SW 6.9 mph - N/A   Clear
2:55 PM 75.2 °F 60.8 °F 61% 29.87 in 10.0 mi WSW 8.1 mph - N/A   Clear
3:15 PM 73.4 °F 60.8 °F 65% 29.86 in 10.0 mi SSW 6.9 mph - N/A   Partly Cloudy
3:35 PM 73.4 °F 60.8 °F 65% 29.86 in 10.0 mi SSW 5.8 mph - N/A   Mostly Cloudy
3:55 PM 73.4 °F 62.6 °F 69% 29.85 in 10.0 mi SSW 3.5 mph - N/A   Scattered Clouds
4:15 PM 73.4 °F 60.8 °F 65% 29.85 in 10.0 mi SSW 3.5 mph - N/A   Partly Cloudy
4:35 PM 73.4 °F 62.6 °F 69% 29.84 in 10.0 mi Calm Calm - N/A   Partly Cloudy
4:55 PM 73.4 °F 62.6 °F 69% 29.83 in 10.0 mi SSW 9.2 mph - N/A   Clear
5:15 PM 73.4 °F 62.6 °F 69% 29.83 in 10.0 mi SSW 4.6 mph - N/A   Scattered Clouds
5:35 PM 73.4 °F 64.4 °F 73% 29.83 in 10.0 mi SSW 4.6 mph - N/A   Mostly Cloudy
5:55 PM 73.4 °F 64.4 °F 73% 29.84 in 10.0 mi Calm Calm - N/A   Scattered Clouds
6:15 PM 73.4 °F 62.6 °F 69% 29.84 in 10.0 mi Calm Calm - N/A   Partly Cloudy
6:35 PM 69.8 °F 64.4 °F 83% 29.84 in 10.0 mi Calm Calm - N/A   Clear